User: anonymous   Login
Location: Unspecified
(0.0000°N, 0.0000°E)
Time: 10:50:28
(UTC+01:00)
Language:

Meteor 1-31 Rocket - Orbit

View from above orbital plane
View from above orbital plane
View from above satellite
View from above satellite

Ground track
Ground track

The orbit data is extracted from the following two-line orbital elements,

1 12586U 81065B   14303.11283984  .00004449  00000-0  30209-3 0  5083
2 12586 097.4123 296.8053 0018420 258.5108 101.4052 15.06746162811570
Epoch (UTC): 30 October 2014 02:42:29
Eccentricity: 0.0018420
inclination: 97.4123°
perigee height: 533 km
apogee height: 559 km
right ascension of ascending node: 296.8053°
argument of perigee: 258.5108°
revolutions per day: 15.06746162
mean anomaly at epoch: 101.4052°
orbit number at epoch: 81157

The dashed part of the orbit path shows where the satellite is in the earth's shadow,  

DLR